Tracking 18633 objects as of 23-April-2017
HD Live streaming from Space Station
objects crossing your sky now

CZ-3C R/B

Track CZ-3C R/B now!
10-day predictions


NORAD ID: 36591
Int'l Code: 2010-024B
Perigee: 209.1 km
Apogee: 17,529.3 km
Inclination: 20.7 °
Period: 312.1 minutes
Semi major axis: 15240 km
RCS: 15.0139 m2 (large)
Launch date: June 2, 2010
Source: People's Republic of China (PRC)
Launch site: Xichang Space Center, China (XSC)

Note: This is a ROCKET BODY
Your satellite tracking list
Your tracking list is empty





NASA's NSSDC Master Catalog

Two Line Element Set (TLE):
1 36591U 10024B   17112.79089234 +.00033367 +00000-0 +94329-3 0  9997
2 36591 020.7381 309.0495 5682425 213.9031 091.4001 04.61443015084148
Source of the keplerian elements: AFSPC